Location: Vista Encantada
(35.1109°N, 106.5681°W)
Time: 21:09:57
(UTC+00:00)

X-37B - Pass Details

Date: 26 September 2021
Orbit: 385 x 389 km, 45.0° (Epoch: 13 October)

Event Time Altitude Azimuth Distance (km) Brightness Sun altitude
Exits shadow 11:58:59 - 319° (NW) 1,458 3.2 -12.8°
Reaches altitude 10° 11:59:10 10° 322° (NW) 1,412 3.1 -12.7°
Maximum altitude 12:00:56 14° 356° (N) 1,202 3.1 -12.4°
Drops below altitude 10° 12:02:43 10° 30° (NNE) 1,414 3.9 -12.0°
Sets 12:05:32 0° 57° (ENE) 2,270 5.7 -11.4°
